This is the latest recevied weather packets stored in our database for station/object WP3XM. If no packets are shown the sender has not sent any weather packets the latest 10 day(s).
| Time | Temp. | Humidity | Pressure | Rain* | Wind** | Luminosity | Snow |
|---|---|---|---|---|---|---|---|
| 1777835921 | 30° C | 65% | 1017.1 hPa | 0 mm | - | 676 W/m² | - |
| 1777835618 | 30° C | 65% | 1017.2 hPa | 0 mm | - | 731 W/m² | - |
| 1777835315 | 29.44° C | 66% | 1017.2 hPa | 0 mm | - | 717 W/m² | - |
| 1777835012 | 30° C | 63% | 1017.4 hPa | 0 mm | - | 762 W/m² | - |
| 1777834709 | 30° C | 64% | 1017.4 hPa | 0 mm | - | 775 W/m² | - |
| 1777834405 | 29.44° C | 65% | 1017.5 hPa | 0 mm | - | 695 W/m² | - |
| 1777834100 | 30° C | 63% | 1017.4 hPa | 0 mm | - | 193 W/m² | - |
| 1777833796 | 29.44° C | 63% | 1017.4 hPa | 0 mm | - | 363 W/m² | - |
| 1777833492 | 30.56° C | 64% | 1017.4 hPa | 0 mm | - | 187 W/m² | - |
| 1777833189 | 30° C | 64% | 1017.7 hPa | 0 mm | - | 870 W/m² | - |
| 1777832887 | 30° C | 64% | 1017.6 hPa | 0 mm | - | 908 W/m² | - |
| 1777832586 | 30° C | 63% | 1017.5 hPa | 0 mm | - | 848 W/m² | - |
| 1777832283 | 29.44° C | 64% | 1017.6 hPa | 0 mm | - | 168 W/m² | - |
| 1777831980 | 30° C | 61% | 1017.5 hPa | 0 mm | - | 964 W/m² | - |
| 1777831676 | 30° C | 63% | 1017.7 hPa | 0 mm | - | 939 W/m² | - |
| 1777831374 | 30° C | 63% | 1017.8 hPa | 0 mm | - | 238 W/m² | - |
| 1777831070 | 30° C | 63% | 1018.1 hPa | 0 mm | - | 991 W/m² | - |
| 1777830768 | 30° C | 64% | 1017.8 hPa | 0 mm | - | 527 W/m² | - |
| 1777830464 | 29.44° C | 63% | 1017.9 hPa | 0 mm | - | 212 W/m² | - |
| 1777830162 | 29.44° C | 64% | 1017.9 hPa | 0 mm | - | 1056 W/m² | - |
| 1777829862 | 30° C | 62% | 1018.1 hPa | 0 mm | - | 289 W/m² | - |
| 1777829558 | 30° C | 62% | 1018.3 hPa | 0 mm | - | 1009 W/m² | - |
| 1777829256 | 30° C | 62% | 1018.2 hPa | 0 mm | - | 1053 W/m² | - |
| 1777828952 | 30° C | 62% | 1018.3 hPa | 0 mm | - | 303 W/m² | - |
| 1777828649 | 30° C | 63% | 1018.3 hPa | 0 mm | - | 995 W/m² | - |
* Rain latest hour (hover to see other rain measurements)
** Current wind speed in m/s (hover to see current wind gust speed)